• In Deutschland
  • Länderverzeichnis
  • Für 7 Tage
  • Wassertemperatur
  • Satellitenkarten
  • Wetterkarte
  • Widgets
  • user-avatar
    Anmelden

    Stündliche Wetter Sewan

    Heute, 21 Juli, Freitag

    Zeit Temperatur Niederschläge Wind Luftdruck Luftfeuchtigkeit
    00:00 +19°C° 0 mm 3 m/S 641 mmHg 57%
    01:00 +18°C° 0 mm 3 m/S 641 mmHg 57%
    02:00 +18°C° 0 mm 2 m/S 641 mmHg 56%
    03:00 +19°C° 0 mm 3 m/S 640 mmHg 58%
    04:00 +19°C° 0 mm 3 m/S 640 mmHg 59%
    05:00 +19°C° 0 mm 2 m/S 641 mmHg 59%
    06:00 +20°C° 0 mm 2 m/S 641 mmHg 59%
    07:00 +23°C° 0 mm 2 m/S 641 mmHg 53%
    08:00 +25°C° 0 mm 2 m/S 642 mmHg 46%
    09:00 +28°C° 0 mm 2 m/S 643 mmHg 39%
    10:00 +29°C° 0 mm 2 m/S 643 mmHg 37%
    11:00 +30°C° 0 mm 2 m/S 643 mmHg 35%
    12:00 +32°C° 0 mm 2 m/S 643 mmHg 32%
    13:00 +32°C° 0 mm 2 m/S 643 mmHg 32%
    14:00 +33°C° 0 mm 3 m/S 643 mmHg 32%
    15:00 +34°C° 0 mm 3 m/S 643 mmHg 32%
    16:00 +33°C° 0,1 mm 3 m/S 642 mmHg 36%
    17:00 +31°C° 0,1 mm 3 m/S 642 mmHg 40%
    18:00 +30°C° 0,1 mm 3 m/S 642 mmHg 45%
    19:00 +27°C° 0 mm 3 m/S 642 mmHg 49%
    20:00 +25°C° 0 mm 3 m/S 642 mmHg 53%
    21:00 +22°C° 0 mm 3 m/S 642 mmHg 57%
    22:00 +21°C° 0 mm 3 m/S 642 mmHg 55%
    23:00 +21°C° 0 mm 3 m/S 642 mmHg 52%

    Morgen, 22 Juli, Samstag

    Zeit Temperatur Niederschläge Wind Luftdruck Luftfeuchtigkeit
    00:00 +20°C° 0 mm 3 m/S 642 mmHg 50%
    01:00 +19°C° 0 mm 3 m/S 642 mmHg 49%
    02:00 +19°C° 0 mm 2 m/S 642 mmHg 49%
    03:00 +19°C° 0 mm 2 m/S 642 mmHg 48%
    04:00 +19°C° 0 mm 2 m/S 642 mmHg 49%
    05:00 +19°C° 0 mm 2 m/S 642 mmHg 49%
    06:00 +20°C° 0 mm 2 m/S 642 mmHg 49%
    07:00 +23°C° 0 mm 2 m/S 643 mmHg 44%
    08:00 +25°C° 0 mm 2 m/S 643 mmHg 39%
    09:00 +28°C° 0 mm 2 m/S 644 mmHg 33%
    10:00 +29°C° 0 mm 2 m/S 644 mmHg 31%
    11:00 +30°C° 0 mm 2 m/S 644 mmHg 29%
    12:00 +32°C° 0 mm 2 m/S 644 mmHg 27%
    13:00 +33°C° 0 mm 3 m/S 644 mmHg 27%
    14:00 +33°C° 0 mm 3 m/S 644 mmHg 27%
    15:00 +34°C° 0 mm 3 m/S 643 mmHg 26%
    16:00 +33°C° 0 mm 3 m/S 643 mmHg 31%
    17:00 +31°C° 0 mm 3 m/S 642 mmHg 35%
    18:00 +30°C° 0 mm 3 m/S 642 mmHg 39%
    19:00 +27°C° 0 mm 3 m/S 642 mmHg 44%
    20:00 +25°C° 0 mm 3 m/S 642 mmHg 49%
    21:00 +22°C° 0 mm 3 m/S 641 mmHg 53%
    22:00 +21°C° 0 mm 3 m/S 641 mmHg 52%
    23:00 +21°C° 0 mm 3 m/S 641 mmHg 51%

    übermorgen, 23 Juli, Sonntag

    Zeit Temperatur Niederschläge Wind Luftdruck Luftfeuchtigkeit
    00:00 +20°C° 0 mm 3 m/S 641 mmHg 50%
    01:00 +20°C° 0 mm 2 m/S 641 mmHg 50%
    02:00 +19°C° 0 mm 2 m/S 641 mmHg 50%
    03:00 +19°C° 0 mm 2 m/S 641 mmHg 50%
    04:00 +19°C° 0 mm 2 m/S 641 mmHg 50%
    05:00 +20°C° 0 mm 2 m/S 641 mmHg 50%
    06:00 +21°C° 0 mm 1 m/S 641 mmHg 50%
    07:00 +23°C° 0 mm 2 m/S 642 mmHg 44%
    08:00 +26°C° 0 mm 2 m/S 642 mmHg 38%
    09:00 +28°C° 0 mm 2 m/S 642 mmHg 33%
    10:00 +29°C° 0 mm 2 m/S 642 mmHg 31%
    11:00 +31°C° 0 mm 2 m/S 642 mmHg 29%
    12:00 +32°C° 0 mm 2 m/S 642 mmHg 27%
    13:00 +32°C° 0 mm 2 m/S 642 mmHg 27%
    14:00 +34°C° 0 mm 2 m/S 641 mmHg 27%
    15:00 +34°C° 0 mm 2 m/S 641 mmHg 28%
    16:00 +33°C° 0 mm 3 m/S 641 mmHg 32%
    17:00 +30°C° 0 mm 3 m/S 640 mmHg 37%
    18:00 +29°C° 0 mm 4 m/S 640 mmHg 41%
    19:00 +27°C° 0 mm 4 m/S 640 mmHg 43%
    20:00 +25°C° 0 mm 4 m/S 640 mmHg 46%
    21:00 +22°C° 0 mm 4 m/S 640 mmHg 48%
    22:00 +21°C° 0 mm 3 m/S 640 mmHg 48%
    23:00 +20°C° 0 mm 3 m/S 640 mmHg 48%

    24 Juli, Montag

    Zeit Temperatur Niederschläge Wind Luftdruck Luftfeuchtigkeit
    00:00 +19°C° 0 mm 3 m/S 640 mmHg 48%
    01:00 +19°C° 0 mm 3 m/S 640 mmHg 51%
    02:00 +18°C° 0 mm 3 m/S 640 mmHg 54%
    03:00 +17°C° 0 mm 2 m/S 639 mmHg 58%
    04:00 +18°C° 0 mm 2 m/S 640 mmHg 59%
    05:00 +18°C° 0 mm 2 m/S 640 mmHg 60%
    06:00 +19°C° 0 mm 2 m/S 640 mmHg 60%
    07:00 +21°C° 0 mm 2 m/S 641 mmHg 53%
    08:00 +24°C° 0 mm 2 m/S 641 mmHg 46%
    09:00 +26°C° 0 mm 2 m/S 641 mmHg 39%
    10:00 +28°C° 0 mm 2 m/S 641 mmHg 36%
    11:00 +29°C° 0 mm 2 m/S 641 mmHg 34%
    12:00 +30°C° 0 mm 2 m/S 641 mmHg 31%
    13:00 +31°C° 0 mm 3 m/S 641 mmHg 31%
    14:00 +31°C° 0 mm 3 m/S 641 mmHg 30%
    15:00 +33°C° 0 mm 3 m/S 641 mmHg 30%
    16:00 +31°C° 0,1 mm 3 m/S 640 mmHg 34%
    17:00 +30°C° 0,1 mm 3 m/S 640 mmHg 38%
    18:00 +29°C° 0,1 mm 3 m/S 640 mmHg 43%
    19:00 +27°C° 0 mm 3 m/S 640 mmHg 48%
    20:00 +24°C° 0 mm 3 m/S 640 mmHg 54%
    21:00 +21°C° 0 mm 3 m/S 640 mmHg 60%
    22:00 +21°C° 0 mm 3 m/S 639 mmHg 60%
    23:00 +20°C° 0 mm 3 m/S 639 mmHg 60%

    25 Juli, Dienstag

    Zeit Temperatur Niederschläge Wind Luftdruck Luftfeuchtigkeit
    00:00 +20°C° 0 mm 3 m/S 639 mmHg 60%
    01:00 +19°C° 0 mm 2 m/S 639 mmHg 61%
    02:00 +19°C° 0 mm 2 m/S 639 mmHg 62%
    03:00 +18°C° 0 mm 2 m/S 639 mmHg 63%
    04:00 +19°C° 0 mm 2 m/S 639 mmHg 62%
    05:00 +19°C° 0 mm 2 m/S 639 mmHg 61%
    06:00 +20°C° 0 mm 2 m/S 640 mmHg 60%
    07:00 +23°C° 0 mm 2 m/S 640 mmHg 52%
    08:00 +25°C° 0 mm 2 m/S 641 mmHg 44%
    09:00 +28°C° 0 mm 2 m/S 641 mmHg 36%
    10:00 +29°C° 0 mm 2 m/S 641 mmHg 33%
    11:00 +30°C° 0 mm 2 m/S 641 mmHg 30%
    12:00 +32°C° 0 mm 2 m/S 641 mmHg 27%
    13:00 +33°C° 0 mm 3 m/S 641 mmHg 26%
    14:00 +34°C° 0 mm 3 m/S 640 mmHg 26%
    15:00 +34°C° 0 mm 3 m/S 640 mmHg 25%
    16:00 +33°C° 0 mm 3 m/S 640 mmHg 29%
    17:00 +31°C° 0 mm 2 m/S 640 mmHg 32%
    18:00 +30°C° 0 mm 2 m/S 639 mmHg 36%
    19:00 +28°C° 0 mm 2 m/S 639 mmHg 44%
    20:00 +25°C° 0 mm 3 m/S 639 mmHg 52%
    21:00 +22°C° 0 mm 3 m/S 639 mmHg 60%
    22:00 +21°C° 0 mm 3 m/S 639 mmHg 60%
    23:00 +21°C° 0 mm 3 m/S 639 mmHg 60%

    26 Juli, Mittwoch

    Zeit Temperatur Niederschläge Wind Luftdruck Luftfeuchtigkeit
    00:00 +20°C° 0 mm 2 m/S 639 mmHg 61%
    01:00 +19°C° 0 mm 2 m/S 639 mmHg 61%
    02:00 +19°C° 0 mm 2 m/S 639 mmHg 62%
    03:00 +19°C° 0 mm 2 m/S 639 mmHg 63%
    04:00 +19°C° 0 mm 2 m/S 639 mmHg 62%
    05:00 +19°C° 0 mm 2 m/S 640 mmHg 61%
    06:00 +21°C° 0 mm 1 m/S 640 mmHg 60%
    07:00 +23°C° 0 mm 1 m/S 640 mmHg 51%
    08:00 +26°C° 0 mm 1 m/S 641 mmHg 42%
    09:00 +28°C° 0 mm 1 m/S 642 mmHg 33%
    10:00 +30°C° 0 mm 2 m/S 642 mmHg 31%
    11:00 +31°C° 0 mm 2 m/S 642 mmHg 28%
    12:00 +32°C° 0 mm 2 m/S 642 mmHg 25%
    13:00 +34°C° 0 mm 2 m/S 642 mmHg 24%
    14:00 +34°C° 0 mm 2 m/S 642 mmHg 23%
    15:00 +34°C° 0 mm 2 m/S 642 mmHg 22%
    16:00 +34°C° 0,1 mm 2 m/S 641 mmHg 26%
    17:00 +32°C° 0,1 mm 2 m/S 641 mmHg 29%
    18:00 +31°C° 0,1 mm 2 m/S 641 mmHg 33%
    19:00 +28°C° 0,1 mm 2 m/S 641 mmHg 41%
    20:00 +26°C° 0,1 mm 3 m/S 641 mmHg 49%
    21:00 +22°C° 0,1 mm 3 m/S 641 mmHg 56%
    22:00 +22°C° 0 mm 3 m/S 641 mmHg 57%
    23:00 +21°C° 0 mm 3 m/S 641 mmHg 58%
    Mehr zeigen